GFSFLT1_con_sbcape_024.txt.gz
CAPE
0 0 0 1 2 59 37 138 620 1001 935 872 1253 1206 1381 1103 983 1053 943 715 928 1121 1024 522 769 671 153 3 0 0 0 0 3
0 0 0 0 48 101 109 245 728 1124 1131 1014 1376 1321 1098 1338 1503 1277 1131 815 713 780 701 256 514 485 92 6 1 67 69 0 0
0 1 0 3 0 83 172 197 822 1093 1317 1229 1389 1650 1514 1343 1258 1629 1411 1187 1144 533 181 398 430 507 111 39 0 92 101 22 0
24 31 27 13 2 68 154 256 857 1288 1492 1362 1663 1742 1740 1784 1615 1297 1693 1878 1329 992 284 245 332 609 219 76 24 0 132 40 61
36 83 13 66 59 27 96 371 885 1290 1847 1630 1765 2019 2035 2024 1909 1769 1565 1766 1762 1252 741 354 447 489 427 178 85 22 88 60 59
0 0 0 41 115 12 88 361 683 1225 1885 1994 1969 2008 2001 2276 2335 2202 1878 1639 1718 1417 1213 606 601 529 610 325 149 153 114 127 47
1 0 1 31 90 42 186 422 638 1178 1521 2174 2198 2275 2050 2004 2314 2590 2327 2001 1738 1751 1592 976 770 681 663 481 171 95 273 240 53
0 0 17 51 140 141 398 567 644 1019 1615 2141 2299 2416 2465 2250 2154 2371 2624 2381 2037 1801 2101 1541 954 908 761 531 312 168 120 215 99
0 0 0 24 276 333 319 645 715 838 1417 2296 2415 2578 2619 2615 2515 2372 2389 2574 2508 2142 1942 2354 1213 878 829 459 391 313 192 218 143
0 0 8 11 209 310 513 766 851 842 1260 2068 2500 2611 2735 2697 2651 2637 2607 2554 2589 2682 2279 2033 1742 864 733 502 476 233 101 87 65
0 0 0 201 307 371 649 756 879 1065 1093 1568 2295 2465 2673 2781 2646 2602 2646 2681 2656 2601 2817 2295 2242 1483 971 897 646 332 4 62 129
0 0 0 45 291 347 359 399 580 857 1117 1402 1686 2063 2452 2653 2623 2495 2557 2546 2560 2550 2760 2810 2628 2436 1472 1123 908 252 0 9 60
0 0 0 0 530 851 914 480 536 693 884 1295 1528 1793 1865 2455 2480 2402 2392 2512 2452 2566 2655 2868 2825 2716 1767 1342 1278 0 0 120 36
100 19 183 0 0 56 848 1140 721 651 759 928 1403 1618 1713 1871 2327 2315 2339 2374 2527 2581 2618 2716 2736 2316 1438 1079 543 0 0 9 0
450 59 192 438 0 0 3 845 1170 878 712 814 1059 1221 1266 1305 1844 2127 2163 2297 2544 2515 2571 2376 1565 816 523 433 119 0 0 0 0
2464 2459 2446 2355 319 0 0 627 1409 1246 946 902 895 1069 1044 1546 1672 1864 2306 2521 2722 2613 1999 1658 995 809 518 352 165 0 0 0 0
2103 2185 2441 2551 2726 2326 2316 1804 1039 1335 1437 1175 1455 1615 1819 2621 2860 3071 2901 2744 2486 2092 1610 1099 800 639 429 351 236 67 0 0 0
1277 1854 1824 1948 2217 2363 2397 2418 2592 2762 2739 1990 2747 2999 3127 3152 2529 2056 751 29 704 894 420 753 637 535 283 302 192 2 0 0 0
31 897 1273 975 759 922 1117 1221 1753 2883 2818 2615 2355 2104 1299 743 230 1 1 1 1 4 1 0 225 291 53 1 122 41 0 0 0
0 357 876 961 854 968 1007 0 3 745 1528 1732 1728 1045 446 119 84 43 17 2 0 0 1 0 0 4 0 0 0 0 0 0 0

GFSFLT1_con_sbcape_027.txt.gz
CAPE
0 0 4 3 2 6 32 89 347 510 521 828 993 947 851 833 803 620 552 240 351 605 862 759 847 737 494 16 0 0 0 0 0
0 0 0 0 2 2 28 25 168 437 449 646 1128 1122 949 858 775 697 574 367 354 582 730 778 462 765 452 29 0 0 0 0 0
0 0 0 0 0 2 4 19 69 394 512 506 806 1174 1076 896 833 800 683 464 544 598 583 509 329 540 328 32 0 0 0 0 0
0 0 0 0 7 10 14 19 28 302 568 575 605 916 1053 1081 1037 991 832 734 697 670 334 122 261 435 197 47 0 0 0 0 0
0 0 0 0 2 12 23 49 43 339 653 692 673 923 945 902 933 1070 1249 1115 946 855 502 73 110 299 197 78 23 0 26 3 6
0 0 0 0 0 0 2 42 76 499 707 901 816 966 1117 1104 1087 1033 1032 1285 1414 1098 844 210 189 239 330 120 49 6 0 28 3
0 0 0 0 0 0 1 33 125 564 874 1038 1003 1160 1282 1320 1374 1370 1249 1104 1146 1341 1238 612 309 260 398 285 96 41 10 0 0
0 0 0 0 0 0 0 14 161 540 946 1277 1186 1346 1525 1510 1534 1575 1524 1405 1249 1252 1335 1060 622 417 383 366 208 150 103 34 9
0 0 0 0 0 0 1 42 138 434 895 1536 1476 1521 1666 1683 1758 1842 1827 1732 1517 1297 1295 1376 784 673 544 490 408 268 85 176 147
0 0 0 0 0 18 29 70 241 418 890 1240 1792 1784 1787 1746 1688 1792 2036 2077 1902 1635 1457 1534 1050 987 794 590 501 318 61 36 154
0 0 0 0 0 0 118 178 334 489 795 1310 1851 1930 1995 2053 1925 1880 1867 2013 2144 2030 1722 1607 1823 1154 925 822 571 360 23 19 111
0 0 0 0 0 0 55 231 524 634 785 1330 1902 2026 2086 2174 2262 2180 2091 2046 2102 2170 2159 1825 1755 1448 989 871 796 199 3 0 179
0 0 0 0 0 2 109 379 651 724 730 1150 1840 2110 2175 2291 2344 2296 2258 2248 2224 2213 2281 2393 2049 1839 1285 1153 1237 281 8 0 270
0 0 0 0 0 202 63 189 550 810 846 918 1369 1950 2175 2204 2385 2361 2284 2269 2225 2284 2300 2409 2481 2184 2014 1394 1282 323 0 15 316
745 786 1125 836 0 0 94 208 324 633 787 985 1093 1341 1609 1940 2141 2411 2316 2254 2334 2342 2418 2573 2708 2664 2301 1623 676 2 0 0 246
2215 2305 2378 2215 2019 1424 1017 0 403 387 573 816 972 1135 1287 1392 1754 2256 2277 2205 2304 2272 2375 2540 2548 2279 1594 607 148 0 0 0 0
1968 1984 1990 2082 2338 2240 1839 2029 1718 582 750 544 589 824 1124 1240 1252 1881 2079 2119 2260 2398 2607 2593 2076 1361 875 750 271 19 0 0 0
751 1053 772 765 1082 875 497 253 137 111 314 1217 611 667 800 941 1086 1283 1202 241 1385 2532 1991 2235 1596 1248 676 368 184 81 0 0 0
100 631 811 891 925 950 147 0 0 0 0 0 152 1647 1200 1641 669 97 1 55 0 2 265 443 290 256 48 1 10 0 0 0 0
4 66 212 0 6 591 620 236 0 0 0 0 0 27 116 6 10 16 250 417 194 5 0 3 9 3 2 50 0 2 2 2 2

GFSFLT1_con_sbcape_030.txt.gz
CAPE
1 12 59 83 87 41 4 142 136 201 264 330 333 297 259 373 452 437 438 326 403 400 528 663 864 814 690 294 37 9 0 0 0
0 0 0 5 23 37 45 29 122 298 341 322 345 408 378 370 464 532 514 355 283 384 498 675 714 819 774 480 64 6 0 0 0
0 0 0 0 0 0 8 18 71 247 411 392 457 552 561 563 592 663 616 350 289 385 438 759 620 809 808 559 69 7 0 0 0
0 0 0 0 0 3 5 19 11 101 332 409 494 806 787 762 743 753 671 416 434 414 477 551 523 742 775 544 161 5 2 0 0
0 0 0 0 0 0 4 4 19 39 270 366 451 849 969 912 824 801 755 602 583 557 465 399 464 555 673 536 266 80 37 21 14
0 0 0 0 0 0 0 0 1 23 161 402 434 605 975 1009 923 848 842 774 777 664 581 354 356 490 557 431 268 85 99 87 61
0 0 0 0 0 0 0 0 0 3 120 350 502 516 768 922 1009 977 1019 1020 981 835 796 422 409 415 577 462 294 196 121 130 110
0 0 0 0 0 0 0 0 8 31 172 371 556 637 725 879 900 932 984 1068 1158 1190 1115 829 485 490 533 541 410 278 215 140 120
0 0 0 0 0 0 0 0 28 109 340 556 775 789 859 971 1067 1067 1080 1059 1032 1123 1280 1259 742 600 588 604 581 352 132 182 179
0 0 0 0 0 0 0 0 38 169 471 788 939 955 1024 1164 1236 1308 1353 1365 1271 1141 1171 1313 1141 916 784 725 753 263 118 133 330
0 0 0 0 0 0 0 0 0 209 426 907 1138 1148 1186 1428 1503 1490 1536 1580 1529 1424 1303 1282 1378 1187 1066 957 915 232 87 113 466
0 0 0 0 0 0 0 0 0 162 434 840 1356 1409 1422 1598 1730 1716 1732 1822 1853 1759 1588 1442 1466 1381 1181 1110 1125 259 77 19 390
0 0 0 0 0 0 0 0 14 171 428 922 1294 1727 1746 1802 1797 1714 1682 1810 1990 2053 1985 1835 1685 1730 1499 1150 1313 170 6 26 471
0 0 0 0 0 0 0 0 110 321 440 853 1278 1655 1882 1951 1977 1949 1817 1792 1859 1951 2153 2155 1954 1861 1696 1426 1245 850 0 0 584
81 748 1434 394 308 224 0 0 233 419 522 795 1064 1586 1821 1962 2118 2202 2159 2162 2125 2098 2180 2296 2352 2208 1977 1633 1541 946 1 0 453
1650 1906 1853 1513 1657 1806 1758 144 0 73 22 451 787 1005 1563 1973 2142 2369 2395 2393 2246 2213 2332 2434 2426 2332 2210 2114 1783 196 1 0 3
826 892 1611 1573 1407 884 742 572 377 467 830 1260 329 715 963 1301 1870 2223 2457 2384 2320 2271 2381 2444 2443 2461 2315 2088 467 63 0 0 0
279 188 71 85 7 0 0 0 0 0 0 345 924 242 336 803 1226 1493 2235 1279 1345 2358 2369 2350 2446 2399 2233 1270 268 2 1 2 1
4 0 0 33 292 356 28 0 0 0 0 0 136 1127 1184 771 980 501 12 25 0 1 524 1315 1123 566 317 92 1 1 0 12 0
21 87 131 114 199 166 191 255 17 0 0 0 6 210 291 162 126 140 152 317 171 0 0 2 2 6 2 0 0 1 0 0 0

GFSFLT1_con_sbcape_033.txt.gz
CAPE
466 634 608 704 1067 1327 1194 1131 1421 1257 1432 1639 1756 1701 1813 1988 2137 1641 1828 1864 1388 1440 1376 1639 2262 2527 2477 2434 2212 1904 1581 1337 836
100 411 623 707 831 1019 1032 1030 1273 1397 1391 1551 1677 1628 1753 1862 1997 2034 1885 2197 2273 1526 2175 1537 2011 2373 2467 2425 2177 1738 1482 1176 879
0 50 233 492 820 1044 1050 789 1180 1347 1345 1506 1629 1669 1678 1660 1760 1976 2062 2246 2224 2161 2212 2055 1871 2096 2187 2336 2255 1807 1427 1059 883
0 0 30 67 513 893 1123 842 900 1258 1409 1550 1705 1743 1757 1766 1737 1849 2021 2105 2207 2283 2380 2095 2321 2180 2158 2297 2264 1903 1596 1301 921
0 1 65 28 31 274 467 1031 984 923 1337 1477 1632 1727 1847 1883 1943 1959 2021 2121 2209 2316 2400 2279 2686 2450 2198 2310 2219 1974 1740 1477 984
0 0 0 17 2 52 548 823 975 905 1062 1174 1347 1740 1815 1934 1982 2077 2140 2261 2290 2331 2415 2461 1981 2242 2344 2139 2174 2056 1742 1783 1388
0 0 1 26 63 418 599 804 1001 1018 1067 1139 1258 1486 1826 2078 2179 2174 2182 2333 2357 2347 2450 2488 2501 2453 2403 2273 2072 2053 1847 1790 1636
0 0 0 26 142 822 977 1061 1173 1072 1067 1346 1406 1696 1784 2076 2293 2390 2352 2402 2421 2406 2447 2426 2480 2515 2508 2231 2066 1850 1952 1842 1728
0 0 0 0 152 389 495 959 1147 1084 1189 1267 1597 1795 1766 2051 2405 2508 2438 2444 2449 2507 2490 2523 2523 2465 2491 2447 1998 1322 854 1537 1932
0 0 0 0 0 79 554 580 1057 1088 1238 1324 1607 1861 1935 2050 2302 2499 2534 2536 2598 2615 2600 2584 2568 2399 2441 2435 2424 736 236 285 1920
0 0 0 0 0 0 459 298 222 977 1182 1545 1711 1931 2069 2107 2212 2370 2402 2474 2514 2672 2701 2762 2758 2558 2456 2490 2421 444 51 82 1577
0 0 0 0 0 0 225 484 841 1133 1312 1702 1913 2099 2189 2237 2026 2059 2440 2497 2535 2541 2567 2670 2809 2788 2778 2633 2650 342 6 23 1340
0 0 0 0 0 0 0 293 408 1184 1208 1718 2114 2262 2285 2348 2407 2464 2603 2696 2727 2765 2729 2675 2588 2821 2957 2353 2755 353 0 40 1580
0 0 0 0 0 140 426 422 681 1435 1619 1996 2118 2001 2178 2576 2830 2791 2771 2976 3018 3064 2828 2783 2711 2878 2983 2905 2503 2325 0 0 1732
1 428 201 0 0 22 149 727 1237 2023 2345 2119 2093 2419 2742 3206 3212 2602 2580 3125 2911 3093 2987 3434 3185 3082 2873 2651 2800 1536 1 0 130
1712 2212 2132 2267 2280 1588 993 1140 1614 1889 1789 1870 2257 2565 2998 3023 3134 3194 3418 3263 2955 2879 3391 3244 3134 3112 2794 2738 2442 2339 316 1 0
2875 2163 2344 2437 2300 2001 1528 1583 1936 2167 2220 1989 2276 2572 3005 3172 3132 3175 3465 3141 2510 2912 2997 3122 3229 3307 2915 2738 2570 1814 0 0 0
1340 874 493 309 156 24 38 86 191 494 1716 2645 2354 2123 2183 2467 2735 2835 3361 3588 3480 3202 3435 3166 3272 3307 3010 3195 1175 0 0 0 2
682 854 938 970 815 586 311 100 29 120 297 1100 2678 2669 2025 1655 1845 2234 2661 3096 1238 1 104 1902 2236 2391 2840 1908 8 1 2 2 1
73 515 652 788 281 398 482 789 671 204 516 676 777 1028 1315 1024 1014 1692 1641 1540 1526 1461 244 0 29 683 22 0 0 1 1 1 1

GFSFLT1_con_sbcape_036.txt.gz
CAPE
158 836 1114 1090 1351 1540 1579 1475 1927 2094 2753 3286 3334 2985 3668 3843 3969 2357 2270 2866 2100 1932 1558 1633 1756 2203 2552 2853 2869 3120 3109 2689 2200
0 576 971 1193 1251 1442 1734 1924 2476 2645 3080 3390 3019 2602 3708 3826 3713 3503 2461 3172 3429 2302 2999 1789 1883 2104 2786 2839 2832 3126 3059 2460 2108
0 68 738 885 1214 1387 1602 1867 2060 2526 3012 3383 3372 2749 2918 2802 3106 3752 3632 3737 3725 3344 2940 2994 2264 2324 2621 2768 2826 3051 3054 2506 2211
0 28 392 770 872 1054 1286 1544 1866 2028 2420 2939 2985 3062 3300 3261 2858 2913 3191 3492 3773 3840 3234 3654 3013 3097 2547 2445 2625 2952 3123 2813 2219
0 0 55 179 360 644 1022 1362 1493 1612 1861 2092 2244 2895 3458 3329 3107 3231 3003 3356 3496 3955 3839 3549 3551 3289 3047 2764 2499 2872 3143 2891 2226
0 0 3 86 132 182 599 1091 1492 1409 1560 1730 1873 2653 2362 2577 2681 2778 3342 3721 3588 3725 3905 4026 2811 3334 3979 3141 2825 3141 3140 2918 2753
0 0 0 0 5 71 179 887 1798 2189 1420 1476 1625 1815 2113 2908 3113 3265 3287 3587 3712 3792 3949 4064 3886 3941 4077 3663 3116 2876 2960 2848 2821
0 0 0 0 46 239 785 1057 1511 2167 1633 1791 1754 2553 2074 2920 3338 3573 3566 3603 3831 3849 3990 3917 4033 4079 4075 4083 3164 2380 3445 3390 2880
0 0 0 0 0 377 1030 1259 1500 1513 2212 1901 1910 2802 2835 3057 3580 3804 3786 3821 3947 4116 4075 4023 4122 4080 4136 4066 3048 1729 1393 2706 3248
0 0 0 0 0 41 274 754 1263 1475 2190 1845 2442 2748 3169 3412 3840 3946 4072 4067 4156 4165 4118 4112 4183 4141 4188 4183 4087 1634 663 1149 2898
0 0 0 0 0 0 0 86 16 604 1180 2779 2846 3115 3269 3522 3714 3959 4106 4202 4133 4185 4206 4106 4166 4177 4237 4221 4090 1988 283 382 2832
0 0 0 0 0 0 0 0 21 129 852 1693 2231 3184 3410 3595 3663 3345 3581 4190 4235 3907 3630 3882 3796 3602 4297 4312 4162 1650 127 245 2431
0 0 0 0 0 0 0 73 151 528 808 1505 2763 3130 2948 3472 3605 3758 3803 4166 4267 4126 3648 3559 3220 3372 4215 3754 4292 1640 37 187 2304
31 1 0 0 0 0 22 173 475 738 1030 1599 2161 2287 2358 3217 3801 4035 4031 4360 4279 4053 3934 3508 3975 4075 4145 4291 3986 3857 0 0 2573
449 230 0 18 218 52 291 1264 1433 1647 3068 2270 2482 2594 2594 3577 3937 3053 2919 4330 4429 4322 4074 4169 4242 3970 3428 3771 4001 2608 123 0 363
858 224 197 921 341 638 1132 1959 1815 2224 3179 2795 2891 2993 3615 3406 3413 3388 3808 4137 4000 3523 3983 3246 3577 3525 3164 3258 3239 4019 1134 0 0
770 1247 2063 2202 2321 1818 2288 2588 2583 2716 3077 2927 2929 3167 3371 3551 3720 3604 3512 3378 3501 3373 3342 3335 3104 3243 2916 3403 3648 3906 3698 324 0
1856 2592 2720 2789 2747 2410 2473 2668 2910 2983 2957 2846 3119 3297 3334 3457 3385 3512 3721 3822 3415 3345 3672 3028 3293 3434 3526 3236 3596 3625 3307 287 4
2382 2153 1667 1429 1236 1070 825 938 1223 1484 2295 3095 2869 2831 2683 2556 2582 3035 3201 3343 3592 1082 220 1 1 0 712 2951 1299 185 23 2 2
1527 1928 1914 1330 1128 1313 1585 1370 1388 1306 1535 1575 1720 1866 2224 2233 1334 1782 2060 2637 2939 3112 974 0 0 2 2 201 1 3 2 2 1

GFSFLT1_con_sbcape_042.txt.gz
CAPE
233 615 1016 1337 1652 1460 1243 1172 1430 1813 2765 3005 3227 3080 3181 2633 2940 2833 1641 2592 1732 1281 1730 1898 2998 2677 3271 3000 3276 3288 3871 3898 3326
155 413 696 1101 1745 1636 1429 1212 1405 1619 2308 3004 3233 3069 3292 3333 2495 3152 2289 1855 2735 2677 2099 2552 3632 2957 3179 3008 3373 3122 3840 3104 3534
153 294 635 1282 1627 1725 1585 1313 1362 1661 2189 2784 3236 3341 3233 3422 3274 2928 2760 2410 2809 2339 3304 2694 4148 3391 3187 3372 3395 3562 3547 3485 3448
38 365 613 1028 1564 1781 1831 1549 1464 1636 1900 2880 3354 3514 3569 3495 3565 3267 2972 2684 2913 3488 2859 4182 3152 3883 3436 3395 3351 3352 3774 3062 3066
4 194 767 983 1438 1674 1979 1899 1693 1748 1962 2355 3228 3781 3784 3594 3600 3834 3562 3055 2945 3210 3788 3239 4178 3766 3488 3312 3224 3452 3317 3301 2368
80 302 883 1089 1260 1551 1919 2096 2090 1909 1993 2096 3034 3590 3887 3882 3788 3779 3832 3694 3145 3264 3188 3812 3138 3932 3867 3240 3304 3304 3461 3227 2952
142 650 736 1018 1107 1578 1769 2144 2343 2360 2232 2192 2328 3219 3624 3759 4005 3917 3908 3856 3924 3372 3617 3243 3698 3540 3501 3703 3405 3360 3275 3392 3481
324 703 462 981 1089 1930 2013 2305 2549 2623 2524 2616 2534 2508 3239 3355 3640 3998 3909 3912 3998 4079 3725 3803 3531 3664 3858 3619 3650 3483 3337 3259 3394
129 231 128 218 50 844 1670 3125 2828 2727 2696 2874 2800 2967 2946 3233 3523 3648 3995 3870 3862 4007 4165 4014 4123 3917 3615 3820 3683 3325 2832 3010 3306
0 0 0 1 45 570 1245 1583 3020 3274 2892 2747 3197 3134 3480 3478 3672 3868 4002 4030 4024 3938 4126 4152 4174 4180 4054 3743 3819 3160 2017 1843 3230
12 0 0 35 0 92 573 122 167 1633 3139 3472 3141 3994 3448 3937 4110 3949 4121 4145 4106 4164 4088 4218 4173 4213 4185 4024 3828 3297 1451 1019 2694
0 0 22 14 39 25 1528 1193 1821 1763 2066 3425 3703 3299 4110 3523 4176 4076 4159 4243 4182 4177 4253 4214 4324 4266 4266 4247 4115 3043 1562 248 2252
218 344 697 1114 919 853 1029 1945 1053 2421 2120 2808 3377 3339 3312 4151 3549 4190 4209 4264 4341 4351 4346 4349 4270 4268 4285 4134 4246 3828 1191 334 2821
164 482 784 1057 1293 1424 1629 1563 1641 2418 2618 1611 2935 3557 3647 3790 4295 3871 4287 4360 4480 4443 4402 4387 4386 4360 4367 4380 4222 4201 1969 5 3089
63 281 517 1386 1552 1911 1876 1764 2089 3079 3058 4410 4108 3443 4155 4298 4512 4056 3934 4489 4625 4561 4537 4471 4428 4440 4440 4449 4429 3779 3543 84 227
0 150 523 1184 2200 1892 2175 2053 3252 3742 3840 4942 4774 4908 5037 4547 4664 4561 4241 4597 4567 4609 4649 4534 4500 4383 4402 4330 4257 4517 3536 1487 0
0 140 569 881 2139 3340 3864 4036 2698 4315 4641 4696 5213 4984 5401 4989 4826 4698 4562 4377 4442 4439 4424 4593 4541 4469 4319 4090 4360 4289 3971 1605 17
0 406 549 1356 2680 4224 4553 4719 4579 4609 4812 4847 4878 5129 4949 5009 4648 4534 4727 4347 3887 4329 4391 3799 4426 4269 3835 3930 4014 3026 1288 2089 2917
29 390 761 2099 3408 3369 3554 3233 3769 4028 4374 4948 4861 4799 4522 4300 3946 4437 4296 4540 3964 0 60 2 0 0 900 1106 32 0 17 984 1624
0 113 760 1948 3376 2940 2898 2683 2655 2695 3440 4172 4847 5057 4842 4018 3588 4018 4326 4442 4380 3680 0 1 0 0 0 0 0 1 2 3 3

GFSFLT1_con_sbcape_045.txt.gz
CAPE
472 419 639 559 398 412 355 424 742 1152 1136 1126 1155 1627 1173 766 1648 1065 752 921 810 209 1105 1425 1329 1981 2139 1760 1882 1972 2111 1967 2234
241 291 657 623 492 501 365 535 866 962 1356 1177 1407 1543 1638 1193 941 2036 867 364 996 338 715 1057 1607 1810 2306 1886 1924 1838 1821 2484 2012
227 446 797 815 668 596 483 509 851 1014 1395 1460 1525 1618 1786 1786 1260 932 1829 681 586 1555 844 736 1753 1867 1860 1951 2036 1981 1886 2401 2369
14 391 858 1118 953 804 617 498 770 1023 1316 1806 1847 1881 1707 2049 1939 1493 1344 1674 685 1279 1418 1914 1427 2065 1883 2059 2167 2230 1962 2066 2157
0 190 706 1247 1143 1045 832 628 692 917 1202 1867 2045 2164 2135 2012 2288 2243 1531 1555 1830 666 1842 1559 2337 2498 2295 2425 2232 2186 2434 2226 2295
0 53 539 1140 1274 1194 1082 813 676 833 957 1614 1997 2289 2317 2333 2274 2472 2255 1877 1506 1998 1138 2229 1696 2512 2510 2412 2378 2350 2171 2480 2233
0 273 509 965 1316 1307 1304 1044 837 798 952 1174 2048 2261 2555 2623 2611 2561 2597 2486 2209 1459 2124 1854 2562 1876 2526 2354 2381 2299 2475 2363 2440
43 93 532 880 1223 1310 1421 1287 1070 986 1000 1221 1411 2411 2678 2780 2873 2713 2691 2685 2796 2620 1922 2357 2079 2503 2211 2725 2320 2436 2349 2600 2503
33 176 511 295 752 1098 1408 1554 1367 1270 1184 1248 1377 1912 2543 2829 2964 3034 2892 2968 2881 2979 2897 2310 2676 2260 2442 2560 2905 2554 2205 2397 2583
0 0 0 35 27 578 1569 1665 1718 1713 1636 1501 1496 1616 1881 2579 2907 3026 3118 3141 3190 3130 3210 3225 2702 2877 2593 2664 2759 2595 1600 1654 2604
0 29 0 0 40 8 6 915 1892 1780 1877 1939 1904 1821 1887 1936 2721 2898 3012 3152 3162 3212 3198 3340 3465 3198 3173 3048 2945 2654 1121 963 2457
217 306 425 460 380 377 294 137 1 1885 2234 2240 2461 2379 2480 2360 2690 2827 2990 3049 3247 3232 3220 3203 3321 3521 3427 3406 3352 2353 1310 410 2095
43 150 232 617 523 532 465 349 524 1159 2192 2428 2295 2482 2850 3053 2941 3114 3060 3252 3280 3397 3349 3352 3329 3406 3510 3389 3477 3272 1096 351 2482
17 46 77 225 563 971 929 846 519 893 566 1306 2484 2430 2494 3176 3166 3296 3415 3288 3502 3511 3547 3522 3540 3519 3542 3632 3515 3516 2021 179 2487
0 3 52 123 181 424 867 1133 670 268 1344 897 2449 2415 2678 2685 3384 2941 3329 3483 3624 3728 3697 3699 3624 3694 3758 3719 3717 3362 2844 358 261
0 0 49 68 112 701 824 1956 1184 850 1300 2785 2732 2624 3080 3038 2947 3478 2683 3754 3584 3939 3834 3896 3863 3863 3886 3878 3817 3798 3391 1436 0
0 0 0 19 171 807 2553 3475 3353 3388 3710 3202 2678 3249 3151 3842 3782 3978 3362 3675 3864 4049 4173 4088 4025 3970 3935 3744 3621 3691 3609 1991 9
0 0 0 0 158 393 2220 2447 3539 3065 3239 3110 3834 3497 4397 4459 4042 3982 3949 2094 1732 3467 3792 3627 3996 3971 3762 3763 3670 2437 312 437 1794
0 0 0 0 0 268 1958 2167 2257 2235 2308 2557 2967 4187 4372 4356 3892 3845 3990 1332 0 1 0 0 0 0 2382 0 0 2 2 1 112
0 0 0 0 0 237 779 2123 1875 2011 1914 2383 2512 2098 3855 3558 3513 3425 3728 3911 2625 9 0 0 0 0 0 0 0 1 2 2 2

GFSFLT1_con_sbcape_048.txt.gz
CAPE
508 138 226 269 198 97 73 270 432 311 340 548 873 734 617 551 366 493 289 96 0 0 295 891 902 1493 1461 1243 1404 1271 1308 1197 934
546 256 163 344 268 186 157 263 560 576 418 373 845 889 796 804 660 535 582 254 24 0 91 990 955 1332 1787 1322 1334 1365 1403 1381 1555
679 357 507 278 278 314 215 259 480 715 656 511 594 1008 825 636 726 1278 775 297 251 839 14 647 1099 1014 1750 1648 1362 1277 1210 1448 1586
466 427 621 244 426 394 282 292 518 756 827 734 773 805 1143 990 695 479 1368 692 98 178 648 144 677 1119 1329 1717 1618 1362 1229 1174 1694
363 448 450 300 579 444 389 345 524 659 957 917 886 1019 1095 1313 1204 873 518 1368 836 381 362 713 578 1124 1301 1576 1664 1565 1443 1362 1612
184 507 402 424 664 542 484 338 515 761 859 1167 1086 1162 1260 1357 1547 1493 1168 702 1243 1101 557 587 1063 1585 1537 1684 1667 1784 1774 1576 1527
0 381 376 644 786 667 587 429 472 751 886 1316 1382 1448 1536 1448 1650 1902 1830 1465 944 1266 1267 483 1019 1376 1982 1837 1955 1779 1820 1940 1953
1 388 828 964 951 838 772 566 474 694 936 1149 1674 1777 1847 1898 1790 1837 2111 2035 1667 1317 1195 1599 889 1134 1500 2138 2103 2110 2046 1928 1905
2 338 980 1201 1091 1008 967 768 594 622 785 1104 1474 1865 2007 2013 2120 2064 2049 2227 2239 1875 1663 1162 1634 1683 1648 1776 2284 2271 1781 2048 2102
0 36 697 1254 1128 1071 1104 995 766 645 746 847 1317 1818 1858 2157 2174 2396 2353 2321 2354 2480 2360 2060 1441 1721 1905 1820 2061 2162 1315 1248 2097
128 74 24 0 49 411 1055 1149 963 823 765 826 1046 1244 2035 2157 2503 2512 2669 2583 2555 2551 2625 2724 2554 2062 2074 2255 2047 1977 947 592 1846
6 105 133 84 11 9 77 541 1233 1142 1054 1041 1043 1186 1226 2134 2350 2755 2799 2857 2850 2817 2908 2850 2909 2969 2696 2397 2580 2131 1051 183 1472
0 0 15 68 380 554 235 93 306 1327 1494 1515 1450 1312 1385 1453 1860 2541 2818 2911 2885 3037 3007 3054 3027 3044 3188 3096 2873 2671 1073 185 1953
0 0 1 5 126 460 686 672 20 377 1278 1885 1883 1890 1728 1800 1686 1935 2492 2662 2831 2835 3007 3012 2959 2983 2973 3080 3014 3046 1157 49 2264
0 0 0 27 309 684 1357 1365 284 84 217 270 1200 2062 2067 2416 2489 2212 2443 2555 2630 2820 2853 3043 3048 3013 3092 3067 3034 2875 1387 140 332
0 0 0 0 39 627 1410 2820 1309 2491 2591 2215 2518 1225 1886 2063 2396 2469 2668 2813 2741 2887 3025 3131 3207 3234 3228 3281 3259 3176 2482 677 7
0 0 0 0 0 13 529 2142 2375 2488 2414 2413 2747 2365 1927 2350 2302 2302 2279 2858 2951 3148 3317 3365 3357 3401 3409 3407 3348 3340 3183 791 17
0 0 0 0 0 0 20 1182 1697 1786 1710 2120 2274 2528 3112 2974 2982 2493 2560 418 1325 2545 2673 2659 3592 3604 3573 3601 3571 3394 3211 3063 1669
0 0 0 0 0 0 0 167 1296 1441 1414 1690 1851 1909 1984 2977 3564 2889 1179 1 1 0 0 2 257 2574 3112 0 250 2 2 2 2
0 0 0 0 0 0 0 114 1031 1171 1190 1141 1307 1444 1300 896 2236 3083 2330 287 28 0 0 0 0 0 0 0 0 0 0 2 2